Location: ActonStarParty
(42.4766°N, 71.4538°W)
Time: 21:36:22
(UTC-04:00)

Cosmos 1869 - Pass Details

Date: 19 April 2018
Orbit: 533 x 552 km, 82.5° (Epoch: 22 May)

Event Time Altitude Azimuth Distance (km) Brightness Sun altitude
Exits shadow 21:35:13 56° 177° (S) 660 3.4 -20.8°
Maximum altitude 21:36:01 83° 96° (E) 562 3.2 -20.9°
Drops below altitude 10° 21:40:04 10° 10° (N) 1,839 6.4 -21.5°
Sets 21:42:15 0° 9° (N) 2,737 7.3 -21.8°
